Regional Weather Roundup
Issued by NWS

Home | Current Version | Previous Version | Text Only | Print | Product List | Glossary Off
Versions: 1 2 3 4 5 6 7 8 9 10 11 12 13 14 15 16 17 18 19 20 21 22 23 24 25 26 27 28

000
ASUS45 KBOI 250410
RWRID

IDAHO REGIONAL WEATHER ROUNDUP
NATIONAL WEATHER SERVICE BOISE ID
900 PM MST SAT FEB 24 2018

NOTE: "FAIR" INDICATES FEW OR NO CLOUDS BELOW 12000 FEET
WITH NO SIGNIFICANT WEATHER AND/OR OBSTRUCTIONS TO VISIBILITY

IDZ012-014-250500-
SOUTHWEST IDAHO


CITY           SKY/WX    TMP DP  RH WIND       PRES   REMARKS
BOISE          MOCLDY    28  24  85 W3        30.07R
CALDWELL       PTCLDY    23  20  88 W6        30.10R WCI  16
MOUNTAIN HOME  PTCLDY    22  22 100 NW6       30.07R WCI  14
$$

IDZ016-017-250500-
SOUTHCENTRAL IDAHO


CITY           SKY/WX    TMP DP  RH WIND       PRES   REMARKS
BURLEY         LGT SNOW  25  23  92 W17G31    29.92R VSB 1   WCI  12
JEROME         CLOUDY    25  24  96 SW20      29.96R WCI  11
TWIN FALLS     MOCLDY    23  20  88 W24       29.97R WCI   7
$$

IDZ019>023-250500-
SOUTHEAST IDAHO


CITY           SKY/WX    TMP DP  RH WIND       PRES   REMARKS
IDAHO FALLS    CLOUDY    23  19  85 S12       29.88R WCI  12
POCATELLO      FLURRIES  26  20  77 S14       29.91R WCI  14
REXBURG        LGT SNOW  21  19  92 S10       29.86R FOG     WCI  10
$$

IDZ006-010-011-018-031-032-250500-
CENTRAL IDAHO MOUNTAINS


CITY           SKY/WX    TMP DP  RH WIND       PRES   REMARKS
MCCALL         MOCLDY    19  15  84 E3        29.92R
HAILEY         MOCLDY    14  10  85 MISG      29.89R
STANLEY          N/A     15  10  80 CALM      29.86R
SALMON         MOCLDY    21  19  92 CALM      29.90R
CHALLIS        MOCLDY    22  10  60 MISG      29.85R
$$

IDZ002-004-006-007-026-250500-
NORTHERN IDAHO


CITY           SKY/WX    TMP DP  RH WIND       PRES   REMARKS
LEWISTON       MOCLDY    32  25  75 SE6       30.05S WCI  26
LOWELL           N/A     31  30  96 CALM      30.08R
COEUR D`ALENE  CLOUDY    26  23  88 W5        29.98R WCI  20
MULLAN PASS    SNOW      16  15  96 VRB6      29.75R VSB 1/2 WCI   7
$$




USA.gov is the U.S. government's official web portal to all federal, state and local government web resources and services.